TimeEST,TemperatureF,Dew PointF,Humidity,Sea Level PressureIn,VisibilityMPH,Wind Direction,Wind SpeedMPH,Gust SpeedMPH,PrecipitationIn,Events,Conditions,WindDirDegrees,DateUTC
12:15 AM,37.4,30.2,75,29.97,10.0,Calm,Calm,-,N/A,,Overcast,0,2012-11-07 05:15:00
12:35 AM,35.6,30.2,81,29.97,10.0,Calm,Calm,-,N/A,,Mostly Cloudy,0,2012-11-07 05:35:00
12:55 AM,35.6,30.2,81,29.96,10.0,Calm,Calm,-,N/A,,Overcast,0,2012-11-07 05:55:00
1:15 AM,35.6,33.8,93,29.96,10.0,Calm,Calm,-,N/A,,Overcast,0,2012-11-07 06:15:00
1:35 AM,35.6,32.0,87,29.96,10.0,Calm,Calm,-,N/A,,Overcast,0,2012-11-07 06:35:00
1:55 AM,35.6,32.0,87,29.96,10.0,Calm,Calm,-,N/A,,Overcast,0,2012-11-07 06:55:00
2:15 AM,35.6,30.2,81,29.96,10.0,Calm,Calm,-,N/A,,Mostly Cloudy,0,2012-11-07 07:15:00
2:35 AM,35.6,30.2,81,29.95,10.0,Calm,Calm,-,N/A,,Overcast,0,2012-11-07 07:35:00
2:55 AM,35.6,32.0,87,29.94,10.0,Calm,Calm,-,N/A,,Overcast,0,2012-11-07 07:55:00
3:15 AM,35.6,30.2,81,29.93,10.0,Calm,Calm,-,N/A,,Overcast,0,2012-11-07 08:15:00
3:55 AM,35.6,30.2,81,29.92,10.0,Calm,Calm,-,N/A,,Clear,0,2012-11-07 08:55:00
4:15 AM,33.8,30.2,87,29.91,10.0,Calm,Calm,-,N/A,,Clear,0,2012-11-07 09:15:00
8:15 AM,35.6,30.2,81,29.94,10.0,Calm,Calm,-,N/A,,Clear,0,2012-11-07 13:15:00
8:35 AM,37.4,30.2,75,29.94,10.0,Calm,Calm,-,N/A,,Clear,0,2012-11-07 13:35:00
8:55 AM,39.2,30.2,70,29.94,10.0,Calm,Calm,-,N/A,,Scattered Clouds,0,2012-11-07 13:55:00
9:15 AM,42.8,30.2,61,29.94,10.0,NNE,3.5,-,N/A,,Mostly Cloudy,20,2012-11-07 14:15:00
9:35 AM,44.6,30.2,57,29.94,10.0,ENE,5.8,-,N/A,,Overcast,60,2012-11-07 14:35:00
9:55 AM,46.4,30.2,53,29.94,10.0,NNE,4.6,-,N/A,,Overcast,30,2012-11-07 14:55:00
10:15 AM,46.4,28.4,50,29.93,10.0,NE,5.8,-,N/A,,Overcast,50,2012-11-07 15:15:00
10:35 AM,48.2,30.2,50,29.93,10.0,NE,8.1,-,N/A,,Mostly Cloudy,40,2012-11-07 15:35:00
10:55 AM,48.2,28.4,46,29.93,10.0,Calm,Calm,-,N/A,,Mostly Cloudy,0,2012-11-07 15:55:00
11:15 AM,48.2,28.4,46,29.92,10.0,Calm,Calm,-,N/A,,Overcast,0,2012-11-07 16:15:00
11:35 AM,50.0,28.4,43,29.91,10.0,NNE,3.5,-,N/A,,Mostly Cloudy,30,2012-11-07 16:35:00
11:55 AM,51.8,28.4,41,29.89,10.0,Calm,Calm,-,N/A,,Mostly Cloudy,0,2012-11-07 16:55:00
12:15 PM,51.8,28.4,41,29.88,10.0,Calm,Calm,-,N/A,,Mostly Cloudy,0,2012-11-07 17:15:00
12:35 PM,51.8,28.4,41,29.87,10.0,NW,3.5,-,N/A,,Mostly Cloudy,310,2012-11-07 17:35:00
12:55 PM,53.6,28.4,38,29.87,10.0,NE,4.6,-,N/A,,Overcast,40,2012-11-07 17:55:00
1:15 PM,53.6,28.4,38,29.86,10.0,Calm,Calm,-,N/A,,Scattered Clouds,0,2012-11-07 18:15:00
1:35 PM,55.4,28.4,36,29.85,10.0,Calm,Calm,-,N/A,,Mostly Cloudy,0,2012-11-07 18:35:00
1:55 PM,55.4,28.4,36,29.85,10.0,SSE,3.5,-,N/A,,Mostly Cloudy,150,2012-11-07 18:55:00
2:15 PM,55.4,26.6,33,29.85,10.0,North,3.5,-,N/A,,Overcast,350,2012-11-07 19:15:00
2:35 PM,55.4,26.6,33,29.85,10.0,Calm,Calm,-,N/A,,Overcast,0,2012-11-07 19:35:00
2:55 PM,55.4,28.4,36,29.85,10.0,East,3.5,-,N/A,,Overcast,80,2012-11-07 19:55:00
3:15 PM,53.6,28.4,38,29.85,10.0,NNE,3.5,-,N/A,,Overcast,30,2012-11-07 20:15:00
3:35 PM,55.4,28.4,36,29.85,10.0,North,4.6,-,N/A,,Overcast,350,2012-11-07 20:35:00
3:55 PM,55.4,30.2,38,29.86,10.0,NNW,4.6,-,N/A,,Mostly Cloudy,330,2012-11-07 20:55:00
4:15 PM,53.6,30.2,41,29.86,10.0,Calm,Calm,-,N/A,,Overcast,0,2012-11-07 21:15:00
4:35 PM,53.6,30.2,41,29.86,10.0,Calm,Calm,-,N/A,,Overcast,0,2012-11-07 21:35:00
4:55 PM,51.8,30.2,44,29.87,10.0,Calm,Calm,-,N/A,,Overcast,0,2012-11-07 21:55:00
5:15 PM,50.0,32.0,50,29.87,10.0,Calm,Calm,-,N/A,,Overcast,0,2012-11-07 22:15:00
5:35 PM,51.8,32.0,47,29.88,10.0,Calm,Calm,-,N/A,,Overcast,0,2012-11-07 22:35:00
5:55 PM,48.2,33.8,58,29.89,10.0,Calm,Calm,-,N/A,,Overcast,0,2012-11-07 22:55:00
6:15 PM,46.4,33.8,62,29.89,10.0,Calm,Calm,-,N/A,,Overcast,0,2012-11-07 23:15:00
6:35 PM,46.4,33.8,62,29.91,10.0,Calm,Calm,-,N/A,,Overcast,0,2012-11-07 23:35:00
6:55 PM,44.6,33.8,66,29.92,10.0,Calm,Calm,-,N/A,,Overcast,0,2012-11-07 23:55:00
7:15 PM,42.8,35.6,76,29.92,10.0,Calm,Calm,-,N/A,,Overcast,0,2012-11-08 00:15:00
7:35 PM,42.8,33.8,70,29.92,10.0,Calm,Calm,-,N/A,,Mostly Cloudy,0,2012-11-08 00:35:00
7:55 PM,42.8,33.8,70,29.93,10.0,Calm,Calm,-,N/A,,Scattered Clouds,0,2012-11-08 00:55:00
8:15 PM,42.8,35.6,76,29.94,10.0,Calm,Calm,-,N/A,,Scattered Clouds,0,2012-11-08 01:15:00
8:35 PM,41.0,35.6,81,29.95,10.0,Calm,Calm,-,N/A,,Scattered Clouds,0,2012-11-08 01:35:00
8:55 PM,39.2,33.8,81,29.95,10.0,Calm,Calm,-,N/A,,Scattered Clouds,0,2012-11-08 01:55:00
9:15 PM,39.2,33.8,81,29.96,10.0,Calm,Calm,-,N/A,,Clear,0,2012-11-08 02:15:00
9:35 PM,37.4,33.8,87,29.96,10.0,Calm,Calm,-,N/A,,Clear,0,2012-11-08 02:35:00
9:55 PM,35.6,33.8,93,29.97,10.0,Calm,Calm,-,N/A,,Clear,0,2012-11-08 02:55:00
10:15 PM,35.6,30.2,81,29.97,10.0,Calm,Calm,-,N/A,,Clear,0,2012-11-08 03:15:00
10:35 PM,35.6,30.2,81,29.97,10.0,Calm,Calm,-,N/A,,Clear,0,2012-11-08 03:35:00
10:55 PM,35.6,32.0,87,29.97,10.0,Calm,Calm,-,N/A,,Mostly Cloudy,0,2012-11-08 03:55:00
11:15 PM,35.6,32.0,87,29.97,10.0,Calm,Calm,-,N/A,,Overcast,0,2012-11-08 04:15:00
11:35 PM,37.4,33.8,87,29.97,10.0,Calm,Calm,-,N/A,,Overcast,0,2012-11-08 04:35:00
11:55 PM,37.4,35.6,93,29.97,10.0,Calm,Calm,-,N/A,,Mostly Cloudy,0,2012-11-08 04:55:00